WX5LOK Weather Reports


Display with metric or nautical units.
time (UTC)temp
F
wind
direction
speed
MPH
gust
MPH
rain 1hr
in
rain 24hr
in
rain mn
in
humidity
%
barometer
mb
20260504233508 66 0.0 0.0 0.00 0.00 0.00 34
20260504233007 67 0.0 0.0 0.00 0.00 0.00 34
20260504232508 67 0.0 0.0 0.00 0.00 0.00 34
20260504232008 67 0.0 0.0 0.00 0.00 0.00 33
20260504231508 67 0.0 0.0 0.00 0.00 0.00 33
20260504231008 67 0.0 0.0 0.00 0.00 0.00 33
20260504230512 67 0.0 0.0 0.00 0.00 0.00 33
20260504230007 67 0.0 0.0 0.00 0.00 0.00 32
20260504225508 67 0.0 0.0 0.00 0.00 0.00 33
20260504225008 66 0.0 0.0 0.00 0.00 0.00 33
20260504224507 67 0.0 0.0 0.00 0.00 0.00 32
20260504224007 68 0.0 0.0 0.00 0.00 0.00 30
20260504223508 69 0.0 0.0 0.00 0.00 0.00 28
20260504223008 71 0.0 0.0 0.00 0.00 0.00 30
20260504222543 70 0.0 0.0 0.00 0.00 0.00 30
20260504222008 70 0.0 0.0 0.00 0.00 0.00 30
20260504221508 71 0.0 0.0 0.00 0.00 0.00 28
20260504221008 72 0.0 0.0 0.00 0.00 0.00 28
20260504220545 73 0.0 0.0 0.00 0.00 0.00 26
20260504220007 75 0.0 0.0 0.00 0.00 0.00 25
20260504215509 76 0.0 0.0 0.00 0.00 0.00 24
20260504215008 75 0.0 0.0 0.00 0.00 0.00 26
20260504214542 76 0.0 0.0 0.00 0.00 0.00 24
20260504214007 76 0.0 0.0 0.00 0.00 0.00 26
20260504213119 75 0.0 0.0 0.00 0.00 0.00 22
20260504212507 75 0.0 0.0 0.00 0.00 0.00 22
20260504212008 75 0.0 0.0 0.00 0.00 0.00 24
20260504211507 73 0.0 0.0 0.00 0.00 0.00 24
20260504211008 73 0.0 0.0 0.00 0.00 0.00 26
20260504210543 73 0.0 0.0 0.00 0.00 0.00 26
20260504210007 72 0.0 0.0 0.00 0.00 0.00 26
20260504205508 73 0.0 0.0 0.00 0.00 0.00 24
20260504205007 73 0.0 0.0 0.00 0.00 0.00 25
20260504204508 73 0.0 0.0 0.00 0.00 0.00 25
20260504204007 73 0.0 0.0 0.00 0.00 0.00 24
20260504203508 74 0.0 0.0 0.00 0.00 0.00 22
20260504203008 76 0.0 0.0 0.00 0.00 0.00 23
20260504202507 76 0.0 0.0 0.00 0.00 0.00 22
20260504202008 76 0.0 0.0 0.00 0.00 0.00 23
20260504201508 76 0.0 0.0 0.00 0.00 0.00 24
20260504201007 77 0.0 0.0 0.00 0.00 0.00 23
20260504200507 76 0.0 0.0 0.00 0.00 0.00 25
20260504200008 74 0.0 0.0 0.00 0.00 0.00 24
20260504195507 75 0.0 0.0 0.00 0.00 0.00 24
20260504195007 74 0.0 0.0 0.00 0.00 0.00 23
20260504194509 74 0.0 0.0 0.00 0.00 0.00 26
20260504194007 73 0.0 0.0 0.00 0.00 0.00 23
20260504193542 74 0.0 0.0 0.00 0.00 0.00 25
20260504193118 74 0.0 0.0 0.00 0.00 0.00 25
20260504192508 74 0.0 0.0 0.00 0.00 0.00 26
20260504192008 74 0.0 0.0 0.00 0.00 0.00 24
20260504191507 73 0.0 0.0 0.00 0.00 0.00 27
20260504191007 74 0.0 0.0 0.00 0.00 0.00 25
20260504190507 74 0.0 0.0 0.00 0.00 0.00 25
20260504190007 73 0.0 0.0 0.00 0.00 0.00 29
20260504185508 72 0.0 0.0 0.00 0.00 0.00 28
20260504185007 73 0.0 0.0 0.00 0.00 0.00 29
20260504184544 73 0.0 0.0 0.00 0.00 0.00 25
20260504184008 72 0.0 0.0 0.00 0.00 0.00 28
20260504183507 72 0.0 0.0 0.00 0.00 0.00 28
20260504183043 73 0.0 0.0 0.00 0.00 0.00 30
20260504182508 71 0.0 0.0 0.00 0.00 0.00 29
20260504182007 71 0.0 0.0 0.00 0.00 0.00 28
20260504181508 72 0.0 0.0 0.00 0.00 0.00 28
20260504181043 72 0.0 0.0 0.00 0.00 0.00 29
20260504180507 72 0.0 0.0 0.00 0.00 0.00 29
20260504180043 72 0.0 0.0 0.00 0.00 0.00 27
20260504175508 72 0.0 0.0 0.00 0.00 0.00 28
20260504175007 72 0.0 0.0 0.00 0.00 0.00 28
20260504174508 71 0.0 0.0 0.00 0.00 0.00 29
20260504174007 71 0.0 0.0 0.00 0.00 0.00 27
20260504173509 71 0.0 0.0 0.00 0.00 0.00 27
20260504173008 71 0.0 0.0 0.00 0.00 0.00 26
20260504172508 71 0.0 0.0 0.00 0.00 0.00 28
20260504171507 71 0.0 0.0 0.00 0.00 0.00 29
20260504171044 70 0.0 0.0 0.00 0.00 0.00 28
20260504170507 70 0.0 0.0 0.00 0.00 0.00 31
20260504151007 64 0.0 0.0 0.00 0.00 0.00 41
20260504150509 64 0.0 0.0 0.00 0.00 0.00 45
20260504141043 58 0.0 0.0 0.00 0.00 0.00 50
20260504140509 58 0.0 0.0 0.00 0.00 0.00 51
20260504130508 53 0.0 0.0 0.00 0.00 0.00 57
20260504110508 56 0.0 0.0 0.00 0.00 0.00 48
20260504100509 54 0.0 0.0 0.00 0.00 0.00 48
20260504082007 57 0.0 0.0 0.00 0.00 0.00 38
20260504081507 57 0.0 0.0 0.00 0.00 0.00 39
20260504081044 57 0.0 0.0 0.00 0.00 0.00 38
20260504080542 57 0.0 0.0 0.00 0.00 0.00 37
20260504050508 57 0.0 0.0 0.00 0.00 0.00 30
20260504050008 56 0.0 0.0 0.00 0.00 0.00 32
20260504045507 56 0.0 0.0 0.00 0.00 0.00 32
20260504045044 57 0.0 0.0 0.00 0.00 0.00 30
20260504044543 58 0.0 0.0 0.00 0.00 0.00 29
20260504044007 58 0.0 0.0 0.00 0.00 0.00 29
20260504043542 58 0.0 0.0 0.00 0.00 0.00 30
20260504043007 58 0.0 0.0 0.00 0.00 0.00 31
20260504042508 58 0.0 0.0 0.00 0.00 0.00 32
20260504042008 59 0.0 0.0 0.00 0.00 0.00 29
20260504041509 60 0.0 0.0 0.00 0.00 0.00 27
20260504041007 60 0.0 0.0 0.00 0.00 0.00 26
20260504040508 61 0.0 0.0 0.00 0.00 0.00 27
20260504040008 61 0.0 0.0 0.00 0.00 0.00 26
20260504035507 61 0.0 0.0 0.00 0.00 0.00 27
20260504035008 61 0.0 0.0 0.00 0.00 0.00 26
20260504034543 62 0.0 0.0 0.00 0.00 0.00 26
20260504034007 63 0.0 0.0 0.00 0.00 0.00 25
20260504033508 63 0.0 0.0 0.00 0.00 0.00 24
20260504033008 63 0.0 0.0 0.00 0.00 0.00 25
20260504032508 63 0.0 0.0 0.00 0.00 0.00 25
20260504032008 63 0.0 0.0 0.00 0.00 0.00 24
20260504031508 63 0.0 0.0 0.00 0.00 0.00 25
20260504031008 64 0.0 0.0 0.00 0.00 0.00 24
20260504030508 64 0.0 0.0 0.00 0.00 0.00 24
20260504030008 64 0.0 0.0 0.00 0.00 0.00 24
20260504025544 64 0.0 0.0 0.00 0.00 0.00 24
20260504025008 64 0.0 0.0 0.00 0.00 0.00 23
20260504024543 64 0.0 0.0 0.00 0.00 0.00 22
20260504024119 65 0.0 0.0 0.00 0.00 0.00 22
20260504023542 65 0.0 0.0 0.00 0.00 0.00 22
20260504023008 65 0.0 0.0 0.00 0.00 0.00 21
20260504022508 66 0.0 0.0 0.00 0.00 0.00 21
20260504022008 66 0.0 0.0 0.00 0.00 0.00 21
20260504021507 66 0.0 0.0 0.00 0.00 0.00 21
20260504021007 66 0.0 0.0 0.00 0.00 0.00 21
20260504020543 67 0.0 0.0 0.00 0.00 0.00 20
20260504020008 67 0.0 0.0 0.00 0.00 0.00 19
20260504015507 67 0.0 0.0 0.00 0.00 0.00 19
20260504015042 68 0.0 0.0 0.00 0.00 0.00 20
20260504014507 68 0.0 0.0 0.00 0.00 0.00 20
20260504014008 68 0.0 0.0 0.00 0.00 0.00 20
20260504013543 68 0.0 0.0 0.00 0.00 0.00 20
20260504013008 68 0.0 0.0 0.00 0.00 0.00 20
20260504012507 68 0.0 0.0 0.00 0.00 0.00 21
20260504012043 69 0.0 0.0 0.00 0.00 0.00 19
20260504011508 70 0.0 0.0 0.00 0.00 0.00 18
20260504011008 70 0.0 0.0 0.00 0.00 0.00 17
20260504010507 70 0.0 0.0 0.00 0.00 0.00 16
20260504010007 71 0.0 0.0 0.00 0.00 0.00 17
20260504005508 71 0.0 0.0 0.00 0.00 0.00 15
20260504005008 71 0.0 0.0 0.00 0.00 0.00 16
20260504004507 71 0.0 0.0 0.00 0.00 0.00 16
20260504004008 71 0.0 0.0 0.00 0.00 0.00 18
20260504003508 71 0.0 0.0 0.00 0.00 0.00 16
20260504003043 71 0.0 0.0 0.00 0.00 0.00 15
20260504002507 72 0.0 0.0 0.00 0.00 0.00 18
20260504002009 72 0.0 0.0 0.00 0.00 0.00 17
20260504001508 72 0.0 0.0 0.00 0.00 0.00 17
20260504001007 72 0.0 0.0 0.00 0.00 0.00 14
20260504000508 72 0.0 0.0 0.00 0.00 0.00 14
20260504000009 72 0.0 0.0 0.00 0.00 0.00 14
20260503235508 72 0.0 0.0 0.00 0.00 0.00 15
20260503235007 71 0.0 0.0 0.00 0.00 0.00 15
20260503234507 72 0.0 0.0 0.00 0.00 0.00 15
20260503234008 72 0.0 0.0 0.00 0.00 0.00 15